Regional Weather Roundup
Issued by NWS

Home | Current Version | Previous Version | Text Only | Print | Product List | Glossary On
Versions: 1 2 3 4 5 6 7 8 9 10 11 12 13 14 15 16 17 18 19 20 21 22 23 24 25 26 27 28 29 30 31 32 33 34 35 36 37 38 39 40 41 42 43 44 45 46 47 48 49 50
000
ASUS44 KMEG 201500
RWRTN
TENNESSEE HOURLY STATE WEATHER ROUNDUP
NATIONAL WEATHER SERVICE MEMPHIS TN
1000 AM CDT SUN APR 20 2014

TNZ002-004-019-021-049-052-054-088>092-201600-
WEST TENNESSEE

CITY           SKY/WX    TMP DP  RH WIND       PRES   REMARKS
MEMPHIS INTL   MOSUNNY   70  47  43 S8        30.23R
NWS MEMPHIS      N/A     71 N/A N/A MISG        N/A
JACKSON        SUNNY     69  45  41 S7        30.24R
DYERSBURG      SUNNY     70  45  40 S5        30.23F
UNION CITY     SUNNY     68  48  49 S6        30.22S
LEXINGTON      SUNNY     66  46  48 S7        30.24R
$$

TNZ008-025-027-028-033-062-065-066-201600-
NORTH MIDDLE TENNESSEE

CITY           SKY/WX    TMP DP  RH WIND       PRES   REMARKS
NASHVILLE      MOSUNNY   68  44  42 W6        30.24S
CLARKSVILLE    SUNNY     66  44  45 SW5       30.23F
COOKEVILLE     SUNNY     66  45  45 S6        30.25S
CROSSVILLE     SUNNY     64  39  39 VRB5      30.27R
$$

TNZ061-075-076-078-094-096-097-201600-
SOUTH MIDDLE TENNESSEE

CITY           SKY/WX    TMP DP  RH WIND       PRES   REMARKS
TULLAHOMA      SUNNY     64  46  52 S3        30.26S
WINCHESTER     SUNNY     64  48  55 W5        30.26S
MCMINNVILLE    SUNNY     64  48  55 W3        30.25F
COLUMBIA       SUNNY     70  57  64 SW8       30.23S
$$

TNZ017-018-042-046-047-201600-
NORTHEAST TENNESSEE

CITY           SKY/WX    TMP DP  RH WIND       PRES   REMARKS
TRI CITIES     MOSUNNY   62  35  36 CALM      30.29S
ELIZABETHTON   SUNNY     61  34  36 CALM      30.28S
$$

TNZ012-013-036-069-073-074-201600-
CENTRAL EAST TENNESSEE

CITY           SKY/WX    TMP DP  RH WIND       PRES   REMARKS
KNOXVILLE      NOT AVBL
OAK RIDGE      SUNNY     65  42  43 E8        30.27S
$$

TNZ083-085-099-201600-
SOUTHEAST TENNESSEE

CITY           SKY/WX    TMP DP  RH WIND       PRES   REMARKS
CHATTANOOGA    MOSUNNY   63  47  55 CALM      30.27S
$$

SKY/WX REPORTED AS FAIR MEANS FEW OR NO CLOUDS BELOW
12 THOUSAND FEET.




USA.gov is the U.S. government's official web portal to all federal, state and local government web resources and services.